Weather History for Drummond Island, MI

Change the Weather History Date:

Friday, September 13, 2013

  Actual Average (KCIU) Record (KCIU)
Temperature  
Mean Temperature 50 °F -  
Max Temperature 58 °F 69 °F 80 °F (1982)
Min Temperature 43 °F 47 °F 37 °F (2007)
Degree Days  
Heating Degree Days 14    
Moisture  
Dew Point 38 °F    
Average Humidity 65    
Maximum Humidity 93    
Minimum Humidity 43    
Precipitation  
Precipitation 0.00 in - - ()
Sea Level Pressure  
Sea Level Pressure 30.12 in    
Wind  
Wind Speed 8 mph (NNW)    
Max Wind Speed 12 mph    
Max Gust Speed 22 mph    
Visibility 10 miles    
Events      
Averages and records for this station are not official NWS values.
T = Trace of Precipitation, MM = Missing Value Source: NWS Daily Summary

Daily Weather History Graph

Daily Weather History Graph

Search for Another Location

Airport:

Trip Planner

Search our weather history database for the weather conditions in past years. The results will help you decide how hot, cold, wet, or windy it might be!

Date:

Astronomy

Sep. 13, 2013 Rise Set
Actual Time 7:10 AM EDT 7:49 PM EDT
Civil Twilight 6:40 AM EDT 8:19 PM EDT
Nautical Twilight 6:04 AM EDT 8:55 PM EDT
Astronomical Twilight 5:27 AM EDT 9:32 PM EDT
Moon 3:52 PM EDT (9/13) 12:24 AM EDT (9/13)
Length of Visible Light 13h 38m
Length of Day
12h 38m
First Quarter, 61% of the Moon is Illuminated
Sep 13
First Quarter
Sep 19
Full
Sep 26
Last Quarter
Oct 4
New
Oct 11
First Quarter

Hourly Weather History & Observations

Time (EDT) Temp. Windchill Dew Point Humidity Pressure Visibility Wind Dir Wind Speed Gust Speed Precip Events Conditions
12:15 AM 50.0 °F - 42.8 °F 76% 30.04 in 10.0 mi North 8.1 mph - N/A   Mostly Cloudy
12:35 AM 49.5 °F - 41.9 °F 75% 30.05 in 10.0 mi North 9.2 mph - N/A   Mostly Cloudy
12:55 AM 49.3 °F - 41.5 °F 75% 30.05 in 10.0 mi North 6.9 mph - N/A   Overcast
1:15 AM 48.9 °F - 40.5 °F 73% 30.05 in 10.0 mi North 9.2 mph 17.3 mph N/A   Overcast
1:35 AM 48.7 °F - 40.6 °F 74% 30.05 in 10.0 mi North 9.2 mph 17.3 mph N/A   Overcast
1:54 AM 48.7 °F - 40.6 °F 74% 30.05 in 10.0 mi North 10.4 mph 17.3 mph N/A   Overcast
2:15 AM 48.4 °F - 39.0 °F 70% 30.06 in 10.0 mi North 10.4 mph 18.4 mph N/A   Overcast
2:35 AM 48.2 °F - 38.7 °F 70% 30.06 in 10.0 mi North 11.5 mph 17.3 mph N/A   Overcast
2:55 AM 48.2 °F - 38.8 °F 70% 30.06 in 10.0 mi North 9.2 mph - N/A   Overcast
3:15 AM 47.7 °F - 38.1 °F 70% 30.06 in 10.0 mi North 8.1 mph - N/A   Overcast
3:35 AM 47.5 °F - 37.8 °F 69% 30.07 in 10.0 mi North 11.5 mph 18.4 mph N/A   Overcast
3:55 AM 47.3 °F - 37.9 °F 70% 30.07 in 10.0 mi North 9.2 mph - N/A   Overcast
4:15 AM 46.9 °F - 36.7 °F 68% 30.08 in 10.0 mi North 8.1 mph 17.3 mph N/A   Overcast
4:35 AM 46.4 °F 43.5 °F 36.3 °F 68% 30.08 in 10.0 mi North 5.8 mph - N/A   Overcast
4:55 AM 46.4 °F 42.4 °F 37.2 °F 70% 30.09 in 10.0 mi North 8.1 mph 16.1 mph N/A   Overcast
5:15 AM 46.0 °F 42.5 °F 36.5 °F 69% 30.09 in 10.0 mi North 6.9 mph 19.6 mph N/A   Overcast
5:35 AM 45.5 °F 40.8 °F 36.0 °F 69% 30.09 in 10.0 mi North 9.2 mph - N/A   Overcast
5:55 AM 45.9 °F 41.2 °F 37.0 °F 71% 30.10 in 10.0 mi North 9.2 mph 18.4 mph N/A   Overcast
6:15 AM 45.3 °F 40.1 °F 36.7 °F 72% 30.10 in 10.0 mi North 10.4 mph 16.1 mph N/A   Overcast
6:35 AM 45.0 °F 39.7 °F 35.8 °F 70% 30.11 in 10.0 mi North 10.4 mph 18.4 mph N/A   Overcast
6:55 AM 44.6 °F 39.2 °F 35.1 °F 69% 30.12 in 10.0 mi North 10.4 mph 17.3 mph N/A   Overcast
7:14 AM 44.1 °F 38.1 °F 35.4 °F 72% 30.13 in 10.0 mi North 11.5 mph 17.3 mph N/A   Overcast
7:35 AM 43.3 °F 39.2 °F 35.1 °F 73% 30.14 in 10.0 mi NNE 6.9 mph - N/A   Mostly Cloudy
7:55 AM 43.7 °F 39.7 °F 34.5 °F 70% 30.14 in 10.0 mi North 6.9 mph - N/A   Overcast
8:15 AM 43.5 °F 40.1 °F 34.5 °F 71% 30.15 in 10.0 mi North 5.8 mph - N/A   Mostly Cloudy
8:35 AM 43.7 °F 39.7 °F 34.3 °F 70% 30.15 in 10.0 mi North 6.9 mph - N/A   Mostly Cloudy
8:55 AM 43.7 °F 39.1 °F 34.3 °F 70% 30.15 in 10.0 mi NNW 8.1 mph - N/A   Overcast
9:15 AM 44.4 °F 39.0 °F 33.8 °F 66% 30.15 in 10.0 mi North 10.4 mph 21.9 mph N/A   Overcast
9:35 AM 44.6 °F 40.2 °F 34.0 °F 66% 30.15 in 10.0 mi North 8.1 mph - N/A   Mostly Cloudy
9:55 AM 45.3 °F 41.1 °F 34.2 °F 65% 30.15 in 10.0 mi North 8.1 mph - N/A   Scattered Clouds
10:15 AM 46.0 °F 42.5 °F 34.7 °F 65% 30.16 in 10.0 mi North 6.9 mph - N/A   Scattered Clouds
10:35 AM 45.9 °F 41.2 °F 34.3 °F 64% 30.17 in 10.0 mi North 9.2 mph - N/A   Scattered Clouds
10:54 AM 45.3 °F 40.1 °F 35.1 °F 67% 30.17 in 10.0 mi North 10.4 mph - N/A   Scattered Clouds
11:15 AM 47.3 °F - 35.4 °F 63% 30.17 in 10.0 mi North 11.5 mph 16.1 mph N/A   Scattered Clouds
11:35 AM 47.7 °F - 35.1 °F 62% 30.17 in 10.0 mi North 8.1 mph - N/A   Clear
11:55 AM 48.2 °F - 35.4 °F 61% 30.16 in 10.0 mi North 11.5 mph - N/A   Clear
12:15 PM 48.9 °F - 35.8 °F 61% 30.17 in 10.0 mi North 4.6 mph - N/A   Clear
12:35 PM 50.0 °F - 35.6 °F 58% 30.17 in 10.0 mi North 8.1 mph - N/A   Clear
12:55 PM 50.2 °F - 36.1 °F 59% 30.17 in 10.0 mi NNW 5.8 mph - N/A   Clear
1:15 PM 51.4 °F - 35.1 °F 54% 30.16 in 10.0 mi NNW 5.8 mph - N/A   Clear
1:35 PM 53.1 °F - 36.7 °F 54% 30.16 in 10.0 mi North 4.6 mph - N/A   Clear
1:55 PM 52.9 °F - 36.3 °F 53% 30.15 in 10.0 mi North 5.8 mph - N/A   Clear
2:15 PM 53.6 °F - 36.1 °F 52% 30.15 in 10.0 mi North 4.6 mph - N/A   Clear
2:35 PM 55.0 °F - 35.6 °F 48% 30.15 in 10.0 mi North 4.6 mph - N/A   Clear
2:55 PM 55.4 °F - 36.7 °F 49% 30.14 in 10.0 mi NNW 4.6 mph - N/A   Clear
3:15 PM 55.6 °F - 35.2 °F 46% 30.14 in 10.0 mi WNW 5.8 mph - N/A   Clear
3:34 PM 56.8 °F - 35.6 °F 45% 30.14 in 10.0 mi North 5.8 mph - N/A   Clear
3:55 PM 57.0 °F - 35.6 °F 45% 30.13 in 10.0 mi North 6.9 mph - N/A   Clear
4:15 PM 57.2 °F - 34.5 °F 43% 30.13 in 10.0 mi North 5.8 mph - N/A   Clear
4:35 PM 58.1 °F - 35.8 °F 43% 30.12 in 10.0 mi NNW 5.8 mph - N/A   Clear
4:55 PM 58.1 °F - 36.3 °F 44% 30.12 in 10.0 mi NNW 3.5 mph - N/A   Clear
5:15 PM 58.1 °F - 36.3 °F 44% 30.12 in 10.0 mi NW 4.6 mph - N/A   Clear
5:35 PM 58.3 °F - 35.8 °F 43% 30.12 in 10.0 mi WNW 4.6 mph - N/A   Clear
5:55 PM 57.7 °F - 36.5 °F 45% 30.12 in 10.0 mi NNW 4.6 mph - N/A   Clear
6:15 PM 57.4 °F - 37.9 °F 48% 30.12 in 10.0 mi WNW 6.9 mph - N/A   Clear
6:35 PM 56.7 °F - 41.0 °F 56% 30.13 in 10.0 mi WNW 6.9 mph - N/A   Clear
6:55 PM 55.8 °F - 41.0 °F 58% 30.12 in 10.0 mi NW 6.9 mph - N/A   Clear
7:15 PM 54.5 °F - 41.4 °F 61% 30.12 in 10.0 mi NW 3.5 mph - N/A   Clear
7:35 PM 53.2 °F - 42.3 °F 66% 30.12 in 10.0 mi WNW 4.6 mph - N/A   Clear
7:55 PM 52.3 °F - 42.1 °F 68% 30.13 in 10.0 mi NW 4.6 mph - N/A   Clear
8:15 PM 51.8 °F - 42.1 °F 69% 30.13 in 10.0 mi WNW 6.9 mph - N/A   Clear
8:35 PM 51.4 °F - 42.1 °F 70% 30.13 in 10.0 mi NNW 4.6 mph - N/A   Clear
8:55 PM 50.9 °F - 42.1 °F 72% 30.13 in 10.0 mi NW 5.8 mph - N/A   Clear
9:15 PM 50.9 °F - 43.0 °F 74% 30.13 in 10.0 mi NW 4.6 mph - N/A   Clear
9:35 PM 50.4 °F - 43.9 °F 78% 30.13 in 10.0 mi Calm Calm - N/A   Clear
9:54 PM 50.0 °F - 44.1 °F 80% 30.13 in 10.0 mi Calm Calm - N/A   Clear
10:15 PM 50.0 °F - 44.2 °F 81% 30.13 in 10.0 mi Calm Calm - N/A   Clear
10:35 PM 49.6 °F - 44.1 °F 81% 30.13 in 10.0 mi NNW 4.6 mph - N/A   Clear
10:55 PM 49.6 °F - 44.2 °F 82% 30.13 in 10.0 mi Calm Calm - N/A   Clear
11:15 PM 48.2 °F - 44.2 °F 86% 30.13 in 10.0 mi Calm Calm - N/A   Clear
11:35 PM 46.4 °F - 42.8 °F 87% 30.13 in 10.0 mi Calm Calm - N/A   Clear
11:55 PM 45.0 °F - 43.0 °F 93% 30.13 in 10.0 mi Calm Calm - N/A   Clear